[[[{"header":{"parameterUnit":"kt","parameterCategory":2,"dx":1,"dy":1,"la1":30.253999710083008,"la2":30.299108505249023,"lo1":-89.0895004272461,"lo2":-89.04439544677734,"nx":28,"ny":28,"refTime":"2022-10-16T21:00:00:Z","depth":0,"parameterNumber":1,"parameterNumberName":"U-component_of_WINDS"},"data":[1.088,1.0856,1.0851,1.0822,1.0812,1.079,1.0781,1.0768,1.0756,1.0728,1.0712,1.0703,1.0688,1.0666,1.0647,1.0643,1.0634,1.063,1.0626,1.0651,1.0654,1.0657,1.0662,1.0629,1.0629,1.0599,1.0599,1.0599,1.09,1.089,1.0873,1.0853,1.0838,1.0839,1.0823,1.081,1.079,1.0775,1.0759,1.0734,1.0713,1.0699,1.0677,1.0665,1.0663,1.0659,1.0659,1.0656,1.0684,1.0689,1.0661,1.0661,1.0661,1.0661,1.0661,1.0661,1.0933,1.092,1.0904,1.0886,1.0874,1.086,1.0846,1.0836,1.0819,1.0796,1.0793,1.077,1.0753,1.0724,1.0713,1.0694,1.0697,1.069,1.0688,1.0686,1.0684,1.0724,1.069,1.069,1.069,1.069,1.0691,0,1.0956,1.0953,1.0936,1.0918,1.0904,1.0888,1.0873,1.0864,1.0854,1.084,1.0818,1.0805,1.0778,1.0756,1.0735,1.0724,1.0721,1.0721,1.0716,1.0716,1.0719,1.0715,1.0759,1.0721,1.0721,1.0722,1.0722,1.0722,1.0988,1.0973,1.0954,1.0943,1.0933,1.0915,1.0903,1.0895,1.0883,1.0862,1.085,1.0829,1.0811,1.0777,1.0764,1.0743,1.0741,1.0727,1.0738,1.0739,1.0738,1.0738,1.0736,1.0724,1.0724,1.0724,1.0724,0,1.1006,1.0997,1.0972,1.0954,1.0949,1.0933,1.0918,1.0903,1.0895,1.0873,1.0867,1.0853,1.0832,1.0821,1.0794,1.0789,1.076,1.076,1.0766,1.0765,1.075,1.075,1.0707,1.07,1.0736,1.0736,1.0736,0,1.1028,1.1009,1.0996,1.0982,1.096,1.0952,1.0929,1.092,1.0905,1.0888,1.0885,1.0868,1.0857,1.0839,1.0831,1.0806,1.0801,1.0795,1.0792,1.0794,1.0794,1.0784,1.0785,1.079,1.079,1.0791,1.0791,0,1.1056,1.1026,1.1004,1.0995,1.0973,1.0963,1.0953,1.0937,1.0924,1.0907,1.0899,1.0879,1.0867,1.0852,1.0841,1.0849,1.0811,1.0819,1.0804,1.0804,1.0795,1.0795,1.0761,1.0791,1.0791,1.0791,1.0791,0,1.1071,1.1055,1.1024,1.1006,1.0998,1.0983,1.0963,1.0947,1.093,1.0924,1.091,1.0905,1.0884,1.0892,1.0862,1.0874,1.0863,1.0855,1.0854,1.0849,1.0858,1.0838,1.0809,1.0804,1.0848,1.0848,1.0848,0,1.1105,1.1071,1.1063,1.1033,1.1015,1.1012,1.0995,1.098,1.0971,1.0954,1.0943,1.0923,1.0928,1.0919,1.0906,1.0894,1.0878,1.0896,1.0869,1.0868,1.0872,1.0845,1.0843,1.0817,1.0854,1.0854,1.0853,0,1.1129,1.1103,1.1098,1.1088,1.1067,1.1052,1.1033,1.1012,1.1001,1.0985,1.0967,1.094,1.0941,1.0928,1.0922,1.0909,1.0888,1.0911,1.0911,1.0906,1.0857,1.0854,1.085,1.0887,1.0886,1.0886,1.0858,0,1.1152,1.1133,1.112,1.1098,1.1085,1.1066,1.1054,1.1042,1.1037,1.1027,1.1002,1.0986,1.0963,1.0956,1.0951,1.0925,1.0927,1.0929,1.0934,1.0918,1.0908,1.0904,1.0949,1.0949,1.0949,1.095,0,0,1.1184,1.1158,1.115,1.1131,1.1119,1.1115,1.1095,1.1083,1.1059,1.105,1.1054,1.1013,1.0999,1.0969,1.0963,1.0954,1.0948,1.0954,1.0926,1.0923,1.0921,1.0911,1.0907,1.095,1.095,1.095,1.095,0,1.119,1.1178,1.1159,1.1147,1.1128,1.1119,1.1114,1.1094,1.1087,1.1062,1.1058,1.1041,1.1008,1.0994,1.0982,1.0958,1.0954,1.0952,1.0943,1.0927,1.0924,1.0922,1.0912,1.0908,1.095,1.095,1.095,0,1.121,1.1196,1.1186,1.116,1.1147,1.1129,1.1132,1.1113,1.1099,1.1094,1.1069,1.1058,1.1038,1.1012,1.1,1.1002,1.0961,1.0972,1.0971,1.0969,1.0953,1.095,1.0947,1.0984,1.0984,1.0984,0,0,1.1216,1.1199,1.118,1.116,1.1152,1.1138,1.1127,1.1121,1.1104,1.1097,1.1083,1.1065,1.1046,1.1034,1.1015,1.0988,1.0982,1.0977,1.0975,1.0974,1.0971,1.0955,1.0952,1.0985,1.0985,1.0985,0,0,1.1218,1.1196,1.1195,1.117,1.1154,1.1133,1.1121,1.1118,1.11,1.1101,1.1088,1.1083,1.1059,1.1048,1.1058,1.1016,1.1022,1.1019,1.1024,1.1022,1.102,1.1022,1.1058,0,0,0,0,0,1.1217,1.1199,1.1198,1.1192,1.1158,1.1134,1.113,1.112,1.1124,1.1115,1.1102,1.1099,1.1051,1.106,1.1053,1.1041,1.0993,1.0992,1.099,1.099,1.0987,1.0986,0,0,0,0,0,0,1.1215,1.1207,1.1198,1.1177,1.117,1.1135,1.114,1.1137,1.1125,1.1125,1.1102,1.1099,1.1089,1.1062,1.1056,1.1045,1.1059,1.0992,1.0991,1.099,1.0989,1.0987,1.0986,0,0,0,0,0,1.1213,1.1207,1.1156,1.1177,1.1171,1.1153,1.1141,1.1138,1.1129,1.1109,1.1106,1.1122,1.1089,1.1084,1.1059,1.1048,1.1063,1.1061,1.0992,1.0991,1.099,1.0988,0,0,0,0,0,0,1.1211,1.1204,1.1154,1.1152,1.1184,1.1155,1.115,1.1139,1.1113,1.111,1.1128,1.1129,1.1089,1.1085,1.1081,1.105,1.1066,1.1064,1.1063,1.0991,1.099,1.0989,0,0,0,0,0,0,1.1207,1.1202,1.1153,1.1161,1.1159,1.1157,1.1153,1.113,1.1113,1.1134,1.1133,1.1129,1.1095,1.1085,1.1082,1.1047,1.1069,1.1067,1.1065,1.1064,1.099,1.099,0,0,0,0,0,0,1.1205,1.12,1.1161,1.116,1.1159,1.1131,1.1136,1.1102,1.1121,1.1135,1.1122,1.1123,1.1095,1.1092,1.1083,1.1049,1.1047,1.1069,1.1067,1.1066,1.1066,0,0,0,0,0,0,0,1.1203,1.1235,1.1169,1.116,1.1158,1.1129,1.1128,1.1128,1.1121,1.1122,1.1122,1.1123,1.108,1.1078,1.1076,1.1051,0,0,1.1069,1.1068,0,0,0,0,0,0,0,0,1.1236,1.1235,1.1169,1.1168,1.1168,1.1129,1.1128,1.1128,1.1121,1.1121,1.1122,1.1122,1.1079,1.1078,1.1076,0,0,0,0,0,0,0,0,0,0,0,0,0,0,0,1.1168,1.1168,0,1.1129,1.1128,1.1128,1.1121,1.1121,1.1122,1.1122,1.1079,1.1077,1.1076,0,0,0,0,0,0,0,0,0,0,0,0,0,0,0,0,0,0,0,0,0,0,0,0,0,0,0,0,0,0,0,0,0,0,0,0,0,0,0,0,0,0,0,0,0,0,0,0,0,0,0,0,0,0,0,0,0,0,0,0,0,0,0,0,0,0,0,0,0]}],[{"header":{"parameterUnit":"kt","parameterCategory":2,"dx":1,"dy":1,"la1":30.253999710083008,"la2":30.299108505249023,"lo1":-89.0895004272461,"lo2":-89.04439544677734,"nx":28,"ny":28,"refTime":"2022-10-16T21:00:00:Z","depth":0,"parameterNumber":2,"parameterNumberName":"V-component_of_WINDS"},"data":[2.2489,2.2593,2.2612,2.2742,2.2781,2.2874,2.2914,2.2969,2.3018,2.3135,2.3207,2.3241,2.3301,2.3395,2.3477,2.3491,2.3525,2.3547,2.356,2.3438,2.3422,2.3408,2.3383,2.3554,2.3554,2.3684,2.3685,2.3686,2.2397,2.2435,2.2509,2.2593,2.2658,2.2647,2.2716,2.2771,2.2857,2.2919,2.299,2.3097,2.3185,2.324,2.3329,2.3383,2.3386,2.3406,2.3403,2.3413,2.3283,2.3256,2.3403,2.3403,2.3403,2.3403,2.3402,2.3402,2.2235,2.2297,2.2358,2.2438,2.2487,2.2545,2.2609,2.2646,2.2722,2.2814,2.2825,2.2924,2.2993,2.3113,2.3159,2.3239,2.3221,2.3252,2.326,2.3267,2.3272,2.3082,2.3256,2.3256,2.3255,2.3255,2.3255,0,2.2122,2.2133,2.2205,2.2283,2.2343,2.2407,2.2469,2.251,2.2545,2.2606,2.2698,2.2755,2.2869,2.296,2.305,2.3093,2.3093,2.3095,2.3117,2.3112,2.3097,2.3107,2.2894,2.3091,2.3089,2.3088,2.3088,2.3087,2.1961,2.2031,2.2105,2.2153,2.2191,2.227,2.2321,2.2346,2.2401,2.2484,2.254,2.2631,2.2704,2.2852,2.2901,2.2988,2.299,2.3062,2.3003,2.2995,2.2992,2.2988,2.2996,2.3073,2.3075,2.3076,2.3078,0,2.1869,2.1899,2.2014,2.2082,2.2101,2.2175,2.2235,2.23,2.2331,2.2426,2.245,2.25,2.2592,2.2628,2.2742,2.2759,2.2888,2.2886,2.2864,2.2866,2.2935,2.2929,2.3152,2.3184,2.3006,2.3007,2.3009,0,2.1744,2.1836,2.1876,2.1941,2.2045,2.2067,2.2171,2.2207,2.2264,2.234,2.2343,2.2414,2.245,2.2528,2.2554,2.2665,2.2686,2.2707,2.2713,2.2707,2.2705,2.2739,2.2732,2.2722,2.2721,2.272,2.2719,0,2.1597,2.1726,2.1832,2.1867,2.195,2.2,2.2038,2.2102,2.2154,2.2227,2.2261,2.2346,2.2394,2.2461,2.2492,2.2451,2.2629,2.2579,2.265,2.265,2.2689,2.2686,2.2873,2.2717,2.2717,2.2717,2.2716,0,2.1501,2.1569,2.1718,2.1787,2.1821,2.1892,2.1974,2.2043,2.2112,2.2131,2.219,2.2197,2.2296,2.2244,2.2382,2.2319,2.2366,2.2394,2.24,2.2413,2.2353,2.2455,2.2628,2.2649,2.2423,2.242,2.2418,0,2.1325,2.1483,2.1502,2.1645,2.1722,2.1718,2.1799,2.1859,2.1891,2.1965,2.2002,2.2087,2.2055,2.2088,2.2151,2.2194,2.2276,2.2184,2.2296,2.23,2.2277,2.2437,2.2454,2.2586,2.2387,2.239,2.2393,0,2.1192,2.1288,2.1312,2.1353,2.1433,2.1499,2.1591,2.1678,2.1726,2.1794,2.1873,2.1994,2.1976,2.2029,2.2045,2.2109,2.2221,2.2081,2.2083,2.2106,2.2374,2.239,2.2412,2.2218,2.2222,2.2225,2.2368,0,2.1042,2.1125,2.1191,2.128,2.1336,2.1427,2.1461,2.1517,2.1524,2.1555,2.1674,2.1735,2.1828,2.1862,2.1872,2.2005,2.1989,2.1969,2.1922,2.2026,2.2075,2.2094,2.1847,2.1846,2.1845,2.1844,0,0,2.0867,2.0986,2.1003,2.1091,2.114,2.1134,2.1229,2.1276,2.1374,2.1409,2.1382,2.1561,2.1613,2.1754,2.1789,2.1827,2.1855,2.1817,2.1976,2.1991,2.2004,2.2055,2.2075,2.1842,2.1842,2.1842,2.1841,0,2.0819,2.0863,2.0954,2.1003,2.1076,2.1103,2.1125,2.1198,2.1223,2.1337,2.1335,2.1411,2.1554,2.1609,2.1656,2.18,2.1796,2.1826,2.1891,2.1965,2.1981,2.1995,2.2048,2.2066,2.1839,2.1839,2.1839,0,2.0695,2.0745,2.0792,2.0899,2.0948,2.1029,2.0986,2.1074,2.1136,2.113,2.1245,2.1284,2.1361,2.1489,2.1548,2.1526,2.1741,2.168,2.1687,2.1695,2.1768,2.1787,2.1804,2.1582,2.1581,2.158,0,0,2.0649,2.0725,2.0788,2.0892,2.0922,2.0964,2.1011,2.1023,2.1089,2.1116,2.1166,2.1233,2.1317,2.1372,2.1452,2.1587,2.1607,2.1646,2.1658,2.1668,2.1681,2.1757,2.1776,2.1576,2.1576,2.1575,0,0,2.0628,2.0703,2.0697,2.0821,2.0882,2.0954,2.1017,2.1013,2.1088,2.1082,2.111,2.1129,2.1249,2.1289,2.123,2.1437,2.1389,2.1404,2.1406,2.1422,2.1434,2.1423,2.1199,0,0,0,0,0,2.0596,2.0693,2.0687,2.0713,2.085,2.0956,2.0975,2.0997,2.0962,2.1012,2.1054,2.1045,2.1263,2.1212,2.1239,2.1305,2.1524,2.1533,2.1542,2.1576,2.1592,2.1606,0,0,0,0,0,0,2.0606,2.0637,2.0685,2.0759,2.079,2.0953,2.0899,2.0908,2.0957,2.0953,2.1037,2.1048,2.1072,2.1199,2.1224,2.1286,2.119,2.1527,2.1535,2.1542,2.1582,2.1595,2.1606,0,0,0,0,0,2.0614,2.0639,2.0853,2.0758,2.0785,2.0838,2.0895,2.0902,2.0941,2.1006,2.1016,2.0954,2.1073,2.1095,2.1214,2.1274,2.1174,2.1183,2.1532,2.1538,2.1544,2.1588,0,0,0,0,0,0,2.062,2.0648,2.0859,2.0869,2.0722,2.083,2.0847,2.0897,2.0991,2.1002,2.0923,2.0919,2.1075,2.1092,2.1109,2.1268,2.116,2.1169,2.1175,2.1537,2.1542,2.1546,0,0,0,0,0,0,2.0635,2.0656,2.0864,2.0817,2.0821,2.0822,2.0837,2.0943,2.0993,2.0904,2.0903,2.092,2.105,2.109,2.1103,2.1267,2.115,2.1158,2.1164,2.1168,2.1541,2.1545,0,0,0,0,0,0,2.0644,2.0663,2.0815,2.0818,2.0821,2.0928,2.0916,2.1057,2.0948,2.09,2.0939,2.0935,2.1049,2.1063,2.1099,2.1257,2.1264,2.115,2.1156,2.116,2.1163,0,0,0,0,0,0,0,2.0652,2.0523,2.0804,2.0819,2.0822,2.0954,2.0957,2.0959,2.0947,2.0943,2.094,2.0937,2.11,2.1109,2.1119,2.1249,0,0,2.1149,2.1153,0,0,0,0,0,0,0,0,2.0516,2.0522,2.0804,2.0806,2.0808,2.0955,2.0957,2.0959,2.0946,2.0943,2.0941,2.0938,2.1102,2.111,2.1118,0,0,0,0,0,0,0,0,0,0,0,0,0,0,0,2.0804,2.0806,0,2.0955,2.0957,2.0958,2.0946,2.0944,2.0941,2.0939,2.1104,2.1111,2.1117,0,0,0,0,0,0,0,0,0,0,0,0,0,0,0,0,0,0,0,0,0,0,0,0,0,0,0,0,0,0,0,0,0,0,0,0,0,0,0,0,0,0,0,0,0,0,0,0,0,0,0,0,0,0,0,0,0,0,0,0,0,0,0,0,0,0,0,0,0]}]]]